#timestamp,LO_Frequency,Hit,StdDev 
1625857215.2,286047001.8,N
1625857235.1,286047002.1,N
1625857236.0,286047002.1,N
1625857255.8,286047002.4,N
1625857275.6,286046999.8,N
1625857295.5,286047001.3,N
1625857315.3,286047001.9,N
1625857335.1,286047001.5,N
1625857355.9,286047004.0,Y
1625857375.7,286047002.0,P
1625857395.6,286047002.5,P
1625857415.4,286047001.6,P
1625857435.2,286047003.8,Y
1625857455.1,286047001.6,P
1625857456.0,286047001.6,P
1625857475.8,286047001.3,P
1625857495.7,286047002.1,Y
1625857515.5,286047000.2,P
1625857535.3,286047002.6,P
1625857555.2,286047001.8,N
1625857575.0,286047002.2,N
1625857575.9,286047002.2,N
1625857595.8,286046999.7,N
1625857615.6,286046999.9,N
1625857635.4,286046998.3,N
1625857655.3,286046999.4,N
1625857675.1,286046998.8,N
1625857695.9,286047001.1,N
1625857715.7,286047001.2,N
1625857735.5,286047002.7,N
1625857755.4,286047001.6,N
1625857775.2,286047002.7,N
1625857795.0,286046999.7,N
1625857795.9,286046999.7,N
1625857815.8,286047000.2,N
1625857835.6,286046999.7,N
1625857855.5,286047000.6,N
1625857875.3,286046999.9,N
1625857895.1,286047000.8,N
1625857915.9,286046998.7,N
1625857935.7,286047001.2,N
1625857955.5,286047000.5,N
1625857975.4,286047000.3,N
1625857995.2,286047000.5,N
1625858015.1,286046998.2,N
1625858016.0,286046998.2,N
1625858035.8,286047000.6,N
1625858055.6,286047000.0,N
1625858075.5,286047000.6,N
1625858095.3,286047000.4,N
1625858115.1,286046999.9,N
1625858135.9,286046998.5,N
1625858155.7,286047001.1,N
1625858175.6,286046999.9,N
1625858195.4,286047000.0,N
1625858215.2,286047000.3,N
1625858235.1,286047000.6,N
1625858236.0,286047000.6,N
1625858255.8,286046998.8,N
1625858275.7,286047000.9,N
1625858295.5,286046999.7,N
1625858315.3,286047000.4,N
1625858335.2,286047001.1,N
1625858355.9,286046998.7,N
1625858375.7,286046998.8,N
1625858395.6,286046998.7,N
1625858415.4,286047001.1,N
1625858435.3,286047001.1,N
1625858455.1,286047001.2,N
1625858456.0,286047001.2,N
1625858475.8,286047001.1,N
1625858495.7,286047000.8,N
1625858515.5,286047000.3,N
1625858535.3,286046999.9,N
1625858555.2,286047000.8,N
1625858575.0,286047000.0,N
1625858575.9,286047000.0,N
1625858595.8,286047002.5,Y
1625858615.6,286047000.0,P
1625858635.4,286046999.7,P
1625858655.3,286047002.3,P
1625858675.1,286047002.0,N
1625858695.9,286047001.4,N
1625858715.7,286046999.8,N
1625858735.5,286047001.1,N
1625858755.4,286046997.0,Y
1625858805.3,286046999.4,E
1625858815.2,286046998.9,N
1625858835.0,286046998.1,P
1625858835.9,286046998.1,P
1625858855.7,286047001.0,N
1625858875.6,286047000.8,N
1625858895.4,286047001.2,N
1625858915.3,286046998.7,N
1625858935.1,286046999.0,N
1625858936.0,286046999.0,N
1625858955.8,286046998.7,N
1625858975.7,286046996.5,Y
1625858995.5,286046998.8,P
1625859015.4,286047000.7,N
1625859035.2,286047002.2,N
1625859055.0,286047001.8,N
1625859055.9,286047001.8,N
1625859075.8,286047002.2,N
1625859095.6,286047001.8,N
1625859115.4,286047002.5,N
1625859135.3,286047000.6,N
1625859155.1,286047000.8,N
1625859175.9,286047001.0,N
1625859195.7,286047000.1,N
1625859215.5,286047000.4,N
1625859235.4,286047000.9,N
1625859255.2,286046999.3,N
1625859275.0,286046999.5,N
1625859275.9,286046999.5,N
1625859295.8,286046999.4,N
1625859315.6,286046997.0,N
1625859335.5,286046999.3,N
1625859355.3,286046996.5,N
1625859375.1,286046999.2,N
1625859395.9,286046997.0,N
1625859415.7,286046999.4,N
1625859435.5,286046999.0,N
1625859455.4,286046998.9,N
1625859475.2,286046996.9,N
1625859495.0,286046999.2,N
1625859495.9,286046999.2,N
1625859515.8,286046996.6,N
1625859535.6,286046996.7,N
1625859555.5,286046999.6,N
1625859575.3,286046999.2,N
1625859595.1,286046998.8,N
1625859615.9,286046996.5,N
1625859635.7,286046997.1,N
1625859655.5,286046997.6,N
1625859675.4,286046994.9,Y
1625859695.2,286046999.5,P
1625859715.1,286046998.3,P
1625859716.0,286046998.3,P
1625859735.8,286046999.6,N
1625859755.6,286046997.2,Y
1625859775.5,286046998.7,P
1625859795.3,286046998.7,P
1625859815.2,286046998.3,P
1625859835.9,286046999.6,N
1625859855.7,286046998.7,Y
1625859875.6,286046999.9,P
1625859895.4,286046999.7,N
1625859915.2,286047002.3,P
1625859935.1,286047002.7,N
1625859936.0,286047002.7,N
1625859955.8,286047004.3,N
1625859975.7,286047002.1,N
1625859995.5,286047001.7,N
1625860015.3,286047001.3,N
1625860035.2,286047004.3,N
1625860055.0,286047003.6,N
1625860055.9,286047003.6,N
1625860105.8,286047005.3,E
1625860115.7,286047001.5,N
1625860135.5,286047000.8,P
1625860155.4,286047000.7,N
1625860175.2,286046998.2,Y
1625860195.1,286046997.0,P
1625860196.0,286046997.0,N
1625860215.8,286046999.5,N
1625860235.6,286046996.8,N
1625860255.5,286046998.0,N
1625860275.3,286046995.3,Y
1625860295.1,286046997.2,P
1625860315.9,286046996.5,P
1625860335.7,286046997.5,P
1625860355.6,286046994.9,Y
1625860375.4,286046999.1,P
1625860395.2,286046998.6,N
1625860415.1,286046998.1,N
1625860416.0,286046998.1,N
1625860435.8,286046998.4,N
1625860455.7,286046998.8,N
1625860475.5,286046998.8,N
1625860495.3,286046998.3,Y
1625860515.2,286047002.2,P
1625860535.0,286047000.0,N
1625860535.9,286047000.0,N
1625860555.7,286047002.8,N
1625860575.6,286047001.0,N
1625860595.4,286047002.2,N
1625860615.3,286047000.1,N
1625860635.1,286047000.1,N
1625860636.0,286047000.1,N
1625860655.8,286047002.4,N
1625860675.7,286047002.1,N
1625860695.5,286047002.4,N
1625860715.3,286047002.3,N
1625860735.2,286047001.8,N
1625860755.0,286046999.7,N
1625860755.9,286046999.7,N
1625860775.8,286047002.6,N
1625860795.6,286047002.3,N
